EDT,Max TemperatureF,Mean TemperatureF,Min TemperatureF,Max Dew PointF,MeanDew PointF,Min DewpointF,Max Humidity, Mean Humidity, Min Humidity, Max Sea Level PressureIn, Mean Sea Level PressureIn, Min Sea Level PressureIn, Max VisibilityMiles, Mean VisibilityMiles, Min VisibilityMiles, Max Wind SpeedMPH, Mean Wind SpeedMPH, Max Gust SpeedMPH,PrecipitationIn, CloudCover, Events, WindDirDegrees
2013-5-1,79,69,58,55,51,47,80,59,37,30.22,30.14,30.06,10,10,10,10,3,20,0.00,1,,122
2013-5-2,75,66,56,54,50,47,72,59,46,30.23,30.17,30.11,10,10,10,9,4,15,0.00,3,,138
2013-5-3,73,65,56,52,44,32,77,51,25,30.12,30.06,30.00,10,10,10,16,6,24,0.00,0,,129
2013-5-4,71,62,52,45,40,31,57,47,37,30.01,29.97,29.92,10,10,10,15,5,28,0.06,3,Rain,130
2013-5-5,52,49,45,52,47,43,100,86,71,29.99,29.90,29.87,10,6,1,7,3,17,1.02,8,Rain,60
2013-5-6,66,59,51,57,53,48,100,86,72,29.92,29.86,29.80,10,8,0,16,2,9,0.86,7,Fog-Rain-Thunderstorm,338
2013-5-7,66,57,48,55,53,48,100,86,72,29.98,29.94,29.88,10,4,0,6,0,8,0.66,7,Fog-Rain,300
2013-5-8,68,60,51,59,55,50,100,92,84,30.05,29.99,29.90,10,6,0,8,2,12,0.02,5,Fog-Rain-Thunderstorm,254
2013-5-9,78,65,51,58,53,50,100,73,46,30.10,30.04,30.00,10,5,0,15,1,8,0.00,3,Fog-Thunderstorm,246
2013-5-10,71,66,60,61,58,54,97,82,66,30.04,29.97,29.88,10,8,1,14,2,30,0.26,6,Rain-Thunderstorm,231
2013-5-11,67,59,51,61,56,48,100,90,80,29.97,29.91,29.87,10,8,1,15,3,23,0.16,7,Rain,294
2013-5-12,60,51,42,49,35,28,83,58,33,30.14,30.05,29.97,10,9,0,13,4,21,0.02,5,Rain,290
2013-5-13,62,50,37,36,31,27,85,57,28,30.21,30.16,30.12,10,9,0,14,4,23,0.00,2,,292
2013-5-14,78,59,39,51,42,30,85,62,38,30.19,30.08,29.93,10,10,10,10,3,20,0.00,1,,180
2013-5-15,85,75,64,58,53,48,67,51,34,30.04,29.97,29.91,10,10,10,10,4,22,0.00,0,,-1
2013-5-16,78,70,62,63,57,48,100,74,47,30.04,29.98,29.94,10,8,1,14,2,25,0.03,2,Rain-Thunderstorm,280
2013-5-17,77,67,56,63,59,55,97,79,60,30.09,30.05,30.00,10,7,0,6,1,13,T,3,Fog,189
2013-5-18,76,70,63,64,63,60,100,84,68,30.10,30.05,29.99,10,5,0,6,1,12,0.06,8,Fog-Rain,140
2013-5-19,81,72,63,68,65,61,93,78,62,30.05,30.01,29.96,10,8,0,8,1,15,0.56,5,Fog-Rain-Thunderstorm,176
2013-5-20,84,74,63,67,64,61,93,74,55,30.10,30.03,29.96,10,10,5,8,0,14,0.03,4,Rain,250
2013-5-21,86,74,62,67,63,60,93,72,51,30.04,29.95,29.88,10,8,0,20,2,44,0.23,2,Fog-Rain-Thunderstorm,182
2013-5-22,83,72,60,65,61,58,93,70,47,29.92,29.87,29.81,10,9,2,12,2,23,0.20,3,Rain-Thunderstorm,225
2013-5-23,76,67,57,64,60,53,100,75,50,30.00,29.92,29.85,10,6,0,17,4,31,0.06,7,Fog-Rain-Thunderstorm,286
2013-5-24,63,56,48,55,45,36,93,68,42,30.30,30.16,29.99,10,9,2,14,5,23,T,5,Rain,330
2013-5-25,65,54,42,45,41,37,89,66,43,30.38,30.31,30.23,10,10,9,8,0,12,0.00,3,,-1
2013-5-26,71,62,52,50,46,42,77,61,44,30.30,30.25,30.20,10,10,10,7,1,13,T,5,Rain,310
2013-5-27,82,68,54,59,53,47,77,61,45,30.21,30.13,30.05,10,10,10,9,3,18,0.00,3,,90
2013-5-28,83,75,66,61,56,52,68,57,45,30.14,30.07,30.02,10,10,10,10,3,18,0.00,2,,-1
2013-5-29,85,75,65,62,59,54,73,58,43,30.17,30.11,30.06,10,10,10,10,2,16,0.00,1,,-1
2013-5-30,87,76,65,62,60,58,81,61,40,30.21,30.13,30.06,10,10,10,8,1,13,0.00,0,,157
2013-5-31,87,77,67,63,60,57,73,59,44,30.13,30.07,30.01,10,10,10,10,3,16,0.00,1,,153